Regional Weather Roundup
Issued by NWS

Home | Current Version | Previous Version | Text Only | Print | Product List | Glossary Off
Versions: 1 2 3 4 5 6 7 8 9 10 11 12 13 14 15 16 17 18 19 20 21 22 23 24 25 26 27 28 29 30 31 32 33 34 35 36 37 38 39 40 41 42 43 44 45 46 47 48 49 50

140
ASUS43 KFSD 260102
RWRSD

WEATHER ROUNDUP FOR SOUTH DAKOTA
NATIONAL WEATHER SERVICE SIOUX FALLS SD
800 PM CDT WED MAY 25 2016

NOTE: "FAIR" INDICATES FEW OR NO CLOUDS BELOW 12,000 FEET WITH NO
SIGNIFICANT WEATHER AND/OR OBSTRUCTIONS TO VISIBILITY.


SDZ001>005-009-010-012>017-260200-
NORTHWEST AND NORTH CENTRAL SOUTH DAKOTA

CITY           SKY/WX    TMP DP  RH WIND       PRES   REMARKS
BUFFALO          N/A     64  43  46 NW10      29.80R
FAITH            N/A     65  42  43 NW14      29.82F
MOBRIDGE       CLOUDY    67  53  61 NW12      29.75R
$$

SDZ012>016-024>037-041>051-057-063-072>074-260200-
SOUTHWEST AND SOUTH CENTRAL SOUTH DAKOTA

CITY           SKY/WX    TMP DP  RH WIND       PRES   REMARKS
RAPID CTY ARPT CLOUDY    58  49  72 N10       29.88S
PIERRE         SUNNY     69  53  56 W10       29.79R
CUSTER         CLOUDY    57  36  45 W7        29.96R
ELLSWORTH AFB  CLOUDY    58  51  77 NE3       29.88
PHILIP         SUNNY     68  50  52 NW6       29.84R
PINE RIDGE     CLOUDY    68  41  37 W8        29.88F
WINNER         FAIR      68  55  63 W12       29.81S
$$

SDZ004>011-016>023-039-040-260200-
NORTHEAST SOUTH DAKOTA

CITY           SKY/WX    TMP DP  RH WIND       PRES   REMARKS
ABERDEEN       CLOUDY    68  46  45 SW6G20    29.72F
WATERTOWN      PTCLDY    71  58  63 SW8       29.79R
BROOKINGS      CLEAR     73  60  63 SW6       29.78F
SISSETON         N/A     74  58  57 SW9       29.72S
$$

SDZ017-020-022-023-036>040-048>070-260200-
SOUTHEAST SOUTH DAKOTA

CITY           SKY/WX    TMP DP  RH WIND       PRES   REMARKS
SIOUX FALLS    PTCLDY    74  59  59 W3        29.78S
HURON          RAIN      57  55  93 W8G23     29.80R FOG
MITCHELL       MOCLDY    74  63  68 SE6       29.77S
YANKTON        CLEAR     79  61  53 N5        29.76S
$$

ABBREVIATIONS USED IN REMARKS
   TC - TEMPERATURE IN CELSIUS
  WCI - WIND CHILL INDEX
   HX - HEAT INDEX
  VSB - VISIBILITY





USA.gov is the U.S. government's official web portal to all federal, state and local government web resources and services.